Find Starlink 31048

NORAD ID: 58544 Int'l Des: 2023-192 Owner: SPXS Country: US Constellation: starlink operational
LEOCIRCULAR

現在のビュー

3D地球を読み込み中...

About Starlink 31048

Starlink 31048 (NORAD 58544) is a starlink constellation satellite (v2 mini) launched Dec 8, 2023 by SPXS of US. It operates in LEO, CIRCULAR orbit with a mass of 730.00 kg.

Starlink 31048について

説明を読み込み中...

次回通過

Passes for default location (London). Set your location on the main map for personalized predictions.

高度履歴

Loading altitude history...

軌道要素

1 58544U 23192P 26171.39547647 .00000002 00000-0 12199-4 0 9993
2 58544 53.1614 305.3891 0001083 93.3410 266.7715 15.30198804141716
Epoch: Jun 20, 2026 • Age: 17 hours

現在のステータス

高度 489.6 km
速度 7.62 km/s
衛星直下点 -41.46°S, 45.77°W
打ち上げ日 Dec 8, 2023
運用期間 2.5 years
タイプ internet

技術仕様

分類 Payload
質量 730.00 kg
乾燥質量 700.00 kg
総質量 730.00 kg
長さ 0.30 m
直径 4.10 m
スパン 29.00 m
形状 Box + pan
製造者 SPXS
バスタイプ Starlink V2M
フェーズステータス In Orbit
所有者/国 SPXS/US

Most Searched